EW0284 Weather Reports


time (UTC)temp
C
wind
direction
speed
KPH
gust
KPH
rain 1hr
cm
rain 24hr
cm
rain mn
cm
humidity
%
barometer
mb
20220811230109 29 330 0.0 16.1 0.00 0.05 0.03 58 1015.5
20220811224553 29 337 1.6 19.3 0.00 0.05 0.03 56 1015.6
20220811223005 30 321 4.8 16.1 0.00 0.05 0.03 54 1015.6
20220811221510 28 326 4.8 25.7 0.00 0.05 0.03 57 1015.7
20220811220108 30 327 0.0 19.3 0.00 0.05 0.03 54 1015.8
20220811214545 30 329 1.6 25.7 0.00 0.05 0.03 54 1015.8
20220811213118 30 345 0.0 19.3 0.00 0.05 0.03 56 1015.7
20220811211543 30 344 0.0 22.5 0.00 0.05 0.03 54 1015.7
20220811210059 30 340 3.2 19.3 0.00 0.05 0.03 53 1015.9
20220811204521 29 322 4.8 25.7 0.00 0.05 0.03 52 1016.1
20220811203036 30 317 3.2 19.3 0.00 0.05 0.03 51 1016.4
20220811201513 30 337 1.6 12.9 0.00 0.05 0.03 49 1016.3
20220811200044 29 309 3.2 19.3 0.00 0.15 0.03 51 1016.5
20220811194510 30 321 4.8 19.3 0.00 0.15 0.03 50 1016.6
20220811193029 30 11 0.0 4.8 0.00 0.15 0.03 53 1016.7
20220811191524 29 58 3.2 24.1 0.00 0.15 0.03 50 1016.8
20220811184608 30 315 0.0 3.2 0.00 0.71 0.03 54 1017.2
20220811183053 29 302 1.6 22.5 0.00 0.71 0.03 55 1017.3
20220811181534 28 312 1.6 12.9 0.00 0.71 0.03 53 1017.4
20220811180103 28 311 0.0 16.1 0.00 0.71 0.03 55 1017.6
20220811174540 28 345 1.6 22.5 0.00 0.79 0.03 56 1017.7
20220811173042 28 344 0.0 6.4 0.00 0.79 0.03 53 1017.9
20220811171525 27 317 0.0 9.7 0.00 0.79 0.03 58 1017.9
20220811170055 27 319 0.0 16.1 0.00 0.79 0.03 56 1018.1
20220811164530 27 321 0.0 19.3 0.00 0.79 0.03 61 1018.1
20220811163048 27 316 3.2 19.3 0.00 0.79 0.03 61 1018.1
20220811161534 26 319 1.6 19.3 0.00 0.79 0.03 63 1018.3
20220811160131 26 308 4.8 16.1 0.00 0.79 0.03 65 1018.4
20220811154519 26 327 0.0 25.7 0.03 0.79 0.03 64 1018.4
20220811153006 26 313 3.2 16.1 0.03 0.79 0.03 62 1018.5
20220811151552 26 10 1.6 9.7 0.03 0.79 0.03 63 1018.4
20220811150110 26 331 0.0 6.4 0.03 0.79 0.03 64 1018.5
20220811144554 25 333 0.0 8.0 0.00 0.76 0.00 65 1018.5
20220811143025 25 320 0.0 6.4 0.00 0.76 0.00 67 1018.4
20220811141605 25 325 0.0 9.7 0.00 0.76 0.00 68 1018.4
20220811140016 25 80 0.0 0.0 0.00 0.76 0.00 76 1018.3
20220811134537 23 80 0.0 0.0 0.00 0.76 0.00 81 1018.4
20220811133058 23 80 0.0 0.0 0.00 0.76 0.00 86 1018.2
20220811131526 22 80 0.0 0.0 0.00 0.76 0.00 88 1018.2
20220811130058 22 80 0.0 0.0 0.00 0.76 0.00 89 1018.2
20220811124518 21 80 0.0 0.0 0.00 0.76 0.00 91 1018.1
20220811123105 21 80 0.0 0.0 0.00 0.76 0.00 92 1018.1
20220811121554 19 80 0.0 0.0 0.00 0.76 0.00 94 1017.9
20220811120023 19 80 0.0 0.0 0.00 0.76 0.00 94 1017.9
20220811114610 18 80 0.0 0.0 0.00 0.76 0.00 95 1017.9
20220811113041 18 80 0.0 0.0 0.00 0.76 0.00 94 1017.8
20220811111521 18 80 0.0 0.0 0.00 0.76 0.00 95 1017.7
20220811110055 18 80 0.0 0.0 0.00 0.76 0.00 94 1017.6
20220811104507 18 80 0.0 0.0 0.00 0.76 0.00 94 1017.5
20220811103045 18 80 0.0 0.0 0.00 0.76 0.00 94 1017.4
20220811101534 18 80 0.0 0.0 0.00 0.76 0.00 94 1017.2
20220811100027 18 80 0.0 0.0 0.00 0.76 0.00 94 1017.3
20220811094543 18 80 0.0 0.0 0.00 0.76 0.00 94 1017.3
20220811093111 18 80 0.0 0.0 0.00 0.76 0.00 94 1017.4
20220811091546 19 80 0.0 0.0 0.00 0.76 0.00 94 1017.4
20220811090100 19 80 0.0 0.0 0.00 0.76 0.00 94 1017.7
20220811084518 19 80 0.0 0.0 0.00 0.76 0.00 94 1017.6
20220811083036 19 80 0.0 0.0 0.00 0.76 0.00 94 1017.5
20220811081502 19 80 0.0 0.0 0.00 0.76 0.00 94 1017.4
20220811080046 20 80 0.0 0.0 0.00 0.76 0.00 94 1017.5
20220811074505 20 80 0.0 0.0 0.00 0.76 0.00 94 1017.5
20220811073117 20 80 0.0 0.0 0.00 0.76 0.00 94 1017.4
20220811071507 20 80 0.0 0.0 0.00 0.76 0.00 94 1017.4
20220811070031 20 80 0.0 0.0 0.00 0.76 0.00 93 1017.5
20220811064638 21 80 0.0 0.0 0.00 0.76 0.00 94 1017.4
20220811063003 21 80 0.0 0.0 0.00 0.76 0.00 94 1017.3
20220811061545 21 80 0.0 0.0 0.00 0.76 0.00 93 1017.4
20220811060107 21 80 0.0 0.0 0.00 0.76 0.00 94 1017.3
20220811054546 21 80 0.0 0.0 0.00 0.76 0.00 93 1017.3
20220811053110 21 80 0.0 0.0 0.00 0.76 0.00 93 1017.1
20220811051529 22 80 0.0 0.0 0.00 0.76 0.00 93 1017.3
20220811050100 22 80 0.0 0.0 0.00 0.76 0.00 93 1017.3
20220811044506 22 80 0.0 0.0 0.00 0.76 0.00 93 1017.3
20220811043026 22 80 0.0 0.0 0.00 0.76 0.00 93 1017.3
20220811041511 23 80 0.0 0.0 0.00 0.76 0.00 92 1017.1
20220811040030 22 80 0.0 0.0 0.00 0.76 0.76 93 1017.1
20220811034604 22 80 0.0 0.0 0.00 0.76 0.76 92 1017.1
20220811033011 23 80 0.0 0.0 0.00 0.76 0.76 92 1017.2
20220811030106 23 80 0.0 0.0 0.00 0.76 0.76 90 1017.5
20220811024535 23 80 0.0 0.0 0.00 0.76 0.76 90 1017.6
20220811023140 23 80 0.0 0.0 0.00 0.76 0.76 91 1017.6
20220811021521 24 80 0.0 0.0 0.00 0.76 0.76 90 1017.5
20220811020036 24 80 0.0 1.6 0.00 0.76 0.76 90 1017.2
20220811014557 25 80 0.0 0.0 0.03 0.76 0.76 90 1016.9
20220811013009 25 80 0.0 0.0 0.03 0.76 0.76 90 1016.8
20220811011605 25 80 0.0 0.0 0.03 0.76 0.76 89 1016.7
20220811010038 25 80 0.0 0.0 0.03 0.76 0.76 88 1016.6
20220811004552 26 80 0.0 0.0 0.00 0.71 0.71 87 1016.5
20220811003005 26 80 0.0 0.0 0.00 0.71 0.71 84 1016.4
20220811001540 26 80 0.0 0.0 0.00 0.71 0.71 83 1016.4
20220811000107 26 80 0.0 4.8 0.00 0.71 0.71 83 1016.3
20220810234528 27 80 0.0 11.3 0.00 0.71 0.71 80 1016.2
20220810233103 27 74 0.0 0.0 0.00 0.71 0.71 82 1016.2
20220810231519 27 74 0.0 1.6 0.00 0.71 0.71 81 1016.2